Location: Treviso
(45.6669°N, 12.2430°E)
Time: 07:48:33
(UTC+01:00)

ISS - Pass Details

Date: 16 January 2018
Orbit: 402 x 407 km, 51.6° (Epoch: 21 January)

Event Time Altitude Azimuth Distance (km) Brightness Sun altitude
Exits shadow 06:09:24 16° 214° (SW) 1,132 -1.8 -16.7°
Drops below altitude 10° 06:11:09 10° 182° (S) 1,458 -0.9 -16.4°
Sets 06:13:42 0° 161° (SSE) 2,313 0.5 -16.0°
